Year,Month,Day,Hour,Minute,Value (Times are PST for temperature in C)
2006,09,22,00,00,6.80
2006,09,22,00,01,6.80
2006,09,22,00,02,6.80
2006,09,22,00,03,6.70
2006,09,22,00,04,6.80
2006,09,22,00,05,6.80
2006,09,22,00,06,6.80
2006,09,22,00,07,6.80
2006,09,22,00,08,6.80
2006,09,22,00,09,6.80
2006,09,22,00,10,6.70
2006,09,22,00,11,6.70
2006,09,22,00,12,6.70
2006,09,22,00,13,6.70
2006,09,22,00,14,6.70
2006,09,22,00,15,6.70
2006,09,22,00,16,6.70
2006,09,22,00,17,6.70
2006,09,22,00,18,6.70
2006,09,22,00,19,6.70
2006,09,22,00,20,6.70
2006,09,22,00,21,6.70
2006,09,22,00,22,6.60
2006,09,22,00,23,6.60
2006,09,22,00,24,6.60
2006,09,22,00,25,6.60
2006,09,22,00,26,6.60
2006,09,22,00,27,6.60
2006,09,22,00,28,6.50
2006,09,22,00,29,6.40
2006,09,22,00,30,6.40
2006,09,22,00,31,6.40
2006,09,22,00,32,6.40
2006,09,22,00,33,6.40
2006,09,22,00,34,6.40
2006,09,22,00,35,6.40
2006,09,22,00,36,6.40
2006,09,22,00,37,6.30
2006,09,22,00,38,6.30
2006,09,22,00,39,6.30
2006,09,22,00,40,6.30
2006,09,22,00,41,6.30
2006,09,22,00,42,6.30
2006,09,22,00,43,6.20
2006,09,22,00,44,6.20
2006,09,22,00,45,6.20
2006,09,22,00,46,6.20
2006,09,22,00,47,6.20
2006,09,22,00,48,6.20
2006,09,22,00,49,6.20
2006,09,22,00,50,6.20
2006,09,22,00,51,6.20
2006,09,22,00,52,6.20
2006,09,22,00,53,6.20
2006,09,22,00,54,6.20
2006,09,22,00,55,6.20
2006,09,22,00,56,6.20
2006,09,22,00,57,6.20
2006,09,22,00,58,6.10
2006,09,22,00,59,6.10
2006,09,22,01,00,6.10
2006,09,22,01,01,6.10
2006,09,22,01,02,6.10
2006,09,22,01,03,6.00
2006,09,22,01,04,6.00
2006,09,22,01,05,6.00
2006,09,22,01,06,6.00
2006,09,22,01,07,6.00
2006,09,22,01,08,6.00
2006,09,22,01,09,6.00
2006,09,22,01,10,6.00
2006,09,22,01,11,6.00
2006,09,22,01,12,6.00
2006,09,22,01,13,6.00
2006,09,22,01,14,6.00
2006,09,22,01,15,6.00
2006,09,22,01,16,6.00
2006,09,22,01,17,6.00
2006,09,22,01,18,6.00
2006,09,22,01,19,6.00
2006,09,22,01,20,6.00
2006,09,22,01,21,5.90
2006,09,22,01,22,5.90
2006,09,22,01,23,5.90
2006,09,22,01,24,5.90
2006,09,22,01,25,5.90
2006,09,22,01,26,5.90
2006,09,22,01,27,5.90
2006,09,22,01,28,5.90
2006,09,22,01,29,5.90
2006,09,22,01,30,5.80
2006,09,22,01,31,5.80
2006,09,22,01,32,5.80
2006,09,22,01,33,5.80
2006,09,22,01,34,5.70
2006,09,22,01,35,5.70
2006,09,22,01,36,5.70
2006,09,22,01,37,5.70
2006,09,22,01,38,5.70
2006,09,22,01,39,5.70
2006,09,22,01,40,5.70
2006,09,22,01,41,5.70
2006,09,22,01,42,5.70
2006,09,22,01,43,5.70
2006,09,22,01,44,5.70
2006,09,22,01,45,5.70
2006,09,22,01,46,5.70
2006,09,22,01,47,5.70
2006,09,22,01,48,5.70
2006,09,22,01,49,5.70
2006,09,22,01,50,5.70
2006,09,22,01,51,5.70
2006,09,22,01,52,5.70
2006,09,22,01,53,5.70
2006,09,22,01,54,5.70
2006,09,22,01,55,5.70
2006,09,22,01,56,5.60
2006,09,22,01,57,5.60
2006,09,22,01,58,5.60
2006,09,22,01,59,5.60
2006,09,22,02,00,5.60
2006,09,22,02,01,5.60
2006,09,22,02,02,5.60
2006,09,22,02,03,5.50
2006,09,22,02,04,5.50
2006,09,22,02,05,5.50
2006,09,22,02,06,5.50
2006,09,22,02,07,5.50
2006,09,22,02,08,5.50
2006,09,22,02,09,5.50
2006,09,22,02,10,5.50
2006,09,22,02,11,5.50
2006,09,22,02,12,5.40
2006,09,22,02,13,5.40
2006,09,22,02,14,5.40
2006,09,22,02,15,5.30
2006,09,22,02,16,5.30
2006,09,22,02,17,5.30
2006,09,22,02,18,5.30
2006,09,22,02,19,5.30
2006,09,22,02,20,5.30
2006,09,22,02,21,5.30
2006,09,22,02,22,5.30
2006,09,22,02,23,5.30
2006,09,22,02,24,5.30
2006,09,22,02,25,5.30
2006,09,22,02,26,5.30
2006,09,22,02,27,5.30
2006,09,22,02,28,5.30
2006,09,22,02,29,5.30
2006,09,22,02,30,5.30
2006,09,22,02,31,5.30
2006,09,22,02,32,5.30
2006,09,22,02,33,5.30
2006,09,22,02,34,5.30
2006,09,22,02,35,5.20
2006,09,22,02,36,5.20
2006,09,22,02,37,5.20
2006,09,22,02,38,5.20
2006,09,22,02,39,5.20
2006,09,22,02,40,5.20
2006,09,22,02,41,5.20
2006,09,22,02,42,5.20
2006,09,22,02,43,5.20
2006,09,22,02,44,5.20
2006,09,22,02,45,5.20
2006,09,22,02,46,5.20
2006,09,22,02,47,5.20
2006,09,22,02,48,5.20
2006,09,22,02,49,5.20
2006,09,22,02,50,5.10
2006,09,22,02,51,5.10
2006,09,22,02,52,5.10
2006,09,22,02,53,5.10
2006,09,22,02,54,5.10
2006,09,22,02,55,5.10
2006,09,22,02,56,5.10
2006,09,22,02,57,5.10
2006,09,22,02,58,5.10
2006,09,22,02,59,5.10
2006,09,22,03,00,5.20
2006,09,22,03,01,5.20
2006,09,22,03,02,5.30
2006,09,22,03,03,5.30
2006,09,22,03,04,5.30
2006,09,22,03,05,5.30
2006,09,22,03,06,5.30
2006,09,22,03,07,5.30
2006,09,22,03,08,5.30
2006,09,22,03,09,5.30
2006,09,22,03,10,5.40
2006,09,22,03,11,5.40
2006,09,22,03,12,5.40
2006,09,22,03,13,5.40
2006,09,22,03,14,5.40
2006,09,22,03,15,5.40
2006,09,22,03,16,5.40
2006,09,22,03,17,5.40
2006,09,22,03,18,5.40
2006,09,22,03,19,5.40
2006,09,22,03,20,5.30
2006,09,22,03,21,5.30
2006,09,22,03,22,5.30
2006,09,22,03,23,5.30
2006,09,22,03,24,5.30
2006,09,22,03,25,5.30
2006,09,22,03,26,5.30
2006,09,22,03,27,5.30
2006,09,22,03,28,5.30
2006,09,22,03,29,5.30
2006,09,22,03,30,5.30
2006,09,22,03,31,5.30
2006,09,22,03,32,5.30
2006,09,22,03,33,5.30
2006,09,22,03,34,5.30
2006,09,22,03,35,5.30
2006,09,22,03,36,5.40
2006,09,22,03,37,5.40
2006,09,22,03,38,5.40
2006,09,22,03,39,5.40
2006,09,22,03,40,5.50
2006,09,22,03,41,5.50
2006,09,22,03,42,5.50
2006,09,22,03,43,5.50
2006,09,22,03,44,5.50
2006,09,22,03,45,5.50
2006,09,22,03,46,5.60
2006,09,22,03,47,5.70
2006,09,22,03,48,5.80
2006,09,22,03,49,5.90
2006,09,22,03,50,5.90
2006,09,22,03,51,6.00
2006,09,22,03,52,6.10
2006,09,22,03,53,6.10
2006,09,22,03,54,6.20
2006,09,22,03,55,6.30
2006,09,22,03,56,6.30
2006,09,22,03,57,6.30
2006,09,22,03,58,6.40
2006,09,22,03,59,6.40
2006,09,22,04,00,6.40
2006,09,22,04,01,6.40
2006,09,22,04,02,6.40
2006,09,22,04,03,6.40
2006,09,22,04,04,6.40
2006,09,22,04,05,6.40
2006,09,22,04,06,6.30
2006,09,22,04,07,6.30
2006,09,22,04,08,6.30
2006,09,22,04,09,6.20
2006,09,22,04,10,6.20
2006,09,22,04,11,6.20
2006,09,22,04,12,6.20
2006,09,22,04,13,6.20
2006,09,22,04,14,6.20
2006,09,22,04,15,6.20
2006,09,22,04,16,6.20
2006,09,22,04,17,6.10
2006,09,22,04,18,6.10
2006,09,22,04,19,6.10
2006,09,22,04,20,6.10
2006,09,22,04,21,6.10
2006,09,22,04,22,6.10
2006,09,22,04,23,6.10
2006,09,22,04,24,6.10
2006,09,22,04,25,6.20
2006,09,22,04,26,6.20
2006,09,22,04,27,6.20
2006,09,22,04,28,6.20
2006,09,22,04,29,6.20
2006,09,22,04,30,6.20
2006,09,22,04,31,6.10
2006,09,22,04,32,6.10
2006,09,22,04,33,6.10
2006,09,22,04,34,6.00
2006,09,22,04,35,6.00
2006,09,22,04,36,5.90
2006,09,22,04,37,5.90
2006,09,22,04,38,5.90
2006,09,22,04,39,5.80
2006,09,22,04,40,5.80
2006,09,22,04,41,5.80
2006,09,22,04,42,5.70
2006,09,22,04,43,5.70
2006,09,22,04,44,5.70
2006,09,22,04,45,5.70
2006,09,22,04,46,5.70
2006,09,22,04,47,5.60
2006,09,22,04,48,5.60
2006,09,22,04,49,5.60
2006,09,22,04,50,5.50
2006,09,22,04,51,5.50
2006,09,22,04,52,5.50
2006,09,22,04,53,5.40
2006,09,22,04,54,5.40
2006,09,22,04,55,5.40
2006,09,22,04,56,5.40
2006,09,22,04,57,5.40
2006,09,22,04,58,5.40
2006,09,22,04,59,5.40
2006,09,22,05,00,5.30
2006,09,22,05,01,5.30
2006,09,22,05,02,5.30
2006,09,22,05,03,5.30
2006,09,22,05,04,5.30
2006,09,22,05,05,5.30
2006,09,22,05,06,5.30
2006,09,22,05,07,5.30
2006,09,22,05,08,5.30
2006,09,22,05,09,5.30
2006,09,22,05,10,5.30
2006,09,22,05,11,5.30
2006,09,22,05,12,5.30
2006,09,22,05,13,5.30
2006,09,22,05,14,5.30
2006,09,22,05,15,5.30
2006,09,22,05,16,5.30
2006,09,22,05,17,5.30
2006,09,22,05,18,5.30
2006,09,22,05,19,5.30
2006,09,22,05,20,5.30
2006,09,22,05,21,5.30
2006,09,22,05,22,5.30
2006,09,22,05,23,5.30
2006,09,22,05,24,5.30
2006,09,22,05,25,5.30
2006,09,22,05,26,5.30
2006,09,22,05,27,5.30
2006,09,22,05,28,5.30
2006,09,22,05,29,5.30
2006,09,22,05,30,5.30
2006,09,22,05,31,5.30
2006,09,22,05,32,5.30
2006,09,22,05,33,5.30
2006,09,22,05,34,5.30
2006,09,22,05,35,5.30
2006,09,22,05,36,5.30
2006,09,22,05,37,5.40
2006,09,22,05,38,5.40
2006,09,22,05,39,5.40
2006,09,22,05,40,5.40
2006,09,22,05,41,5.40
2006,09,22,05,42,5.40
2006,09,22,05,43,5.50
2006,09,22,05,44,5.50
2006,09,22,05,45,5.50
2006,09,22,05,46,5.50
2006,09,22,05,47,5.50
2006,09,22,05,48,5.50
2006,09,22,05,49,5.50
2006,09,22,05,50,5.50
2006,09,22,05,51,5.50
2006,09,22,05,52,5.50
2006,09,22,05,53,5.50
2006,09,22,05,54,5.50
2006,09,22,05,55,5.40
2006,09,22,05,56,5.40
2006,09,22,05,57,5.40
2006,09,22,05,58,5.40
2006,09,22,05,59,5.40
2006,09,22,06,00,5.40
2006,09,22,06,01,5.40
2006,09,22,06,02,5.50
2006,09,22,06,03,5.50
2006,09,22,06,04,5.50
2006,09,22,06,05,5.50
2006,09,22,06,06,5.50
2006,09,22,06,07,5.50
2006,09,22,06,08,5.50
2006,09,22,06,09,5.40
2006,09,22,06,10,5.40
2006,09,22,06,11,5.40
2006,09,22,06,12,5.40
2006,09,22,06,13,5.40
2006,09,22,06,14,5.40
2006,09,22,06,15,5.40
2006,09,22,06,16,5.40
2006,09,22,06,17,5.40
2006,09,22,06,18,5.40
2006,09,22,06,19,5.40
2006,09,22,06,20,5.40
2006,09,22,06,21,5.40
2006,09,22,06,22,5.30
2006,09,22,06,23,5.30
2006,09,22,06,24,5.30
2006,09,22,06,25,5.30
2006,09,22,06,26,5.30
2006,09,22,06,27,5.30
2006,09,22,06,28,5.30
2006,09,22,06,29,5.30
2006,09,22,06,30,5.30
2006,09,22,06,31,5.40
2006,09,22,06,32,5.50
2006,09,22,06,33,5.70
2006,09,22,06,34,5.70
2006,09,22,06,35,5.70
2006,09,22,06,36,5.80
2006,09,22,06,37,5.80
2006,09,22,06,38,5.90
2006,09,22,06,39,6.00
2006,09,22,06,40,6.00
2006,09,22,06,41,6.00
2006,09,22,06,42,6.00
2006,09,22,06,43,6.00
2006,09,22,06,44,6.00
2006,09,22,06,45,5.90
2006,09,22,06,46,5.90
2006,09,22,06,47,5.80
2006,09,22,06,48,5.80
2006,09,22,06,49,5.70
2006,09,22,06,50,5.70
2006,09,22,06,51,5.70
2006,09,22,06,52,5.80
2006,09,22,06,53,5.80
2006,09,22,06,54,5.90
2006,09,22,06,55,5.90
2006,09,22,06,56,5.90
2006,09,22,06,57,5.80
2006,09,22,06,58,5.80
2006,09,22,06,59,5.80
2006,09,22,07,00,5.70
2006,09,22,07,01,5.80
2006,09,22,07,02,5.80
2006,09,22,07,03,5.70
2006,09,22,07,04,5.70
2006,09,22,07,05,5.70
2006,09,22,07,06,5.70
2006,09,22,07,07,5.70
2006,09,22,07,08,5.80
2006,09,22,07,09,5.80
2006,09,22,07,10,5.80
2006,09,22,07,11,5.80
2006,09,22,07,12,5.90
2006,09,22,07,13,5.90
2006,09,22,07,14,6.00
2006,09,22,07,15,6.10
2006,09,22,07,16,6.20
2006,09,22,07,17,6.20
2006,09,22,07,18,6.20
2006,09,22,07,19,6.20
2006,09,22,07,20,6.20
2006,09,22,07,21,6.30
2006,09,22,07,22,6.20
2006,09,22,07,23,6.20
2006,09,22,07,24,6.20
2006,09,22,07,25,6.20
2006,09,22,07,26,6.20
2006,09,22,07,27,6.20
2006,09,22,07,28,6.20
2006,09,22,07,29,6.20
2006,09,22,07,30,6.20
2006,09,22,07,31,6.20
2006,09,22,07,32,6.20
2006,09,22,07,33,6.20
2006,09,22,07,34,6.20
2006,09,22,07,35,6.10
2006,09,22,07,36,6.10
2006,09,22,07,37,6.10
2006,09,22,07,38,6.00
2006,09,22,07,39,6.00
2006,09,22,07,40,6.00
2006,09,22,07,41,6.00
2006,09,22,07,42,6.00
2006,09,22,07,43,6.00
2006,09,22,07,44,6.00
2006,09,22,07,45,6.00
2006,09,22,07,46,6.00
2006,09,22,07,47,6.10
2006,09,22,07,48,6.10
2006,09,22,07,49,6.00
2006,09,22,07,50,6.00
2006,09,22,07,51,6.00
2006,09,22,07,52,6.00
2006,09,22,07,53,6.00
2006,09,22,07,54,6.00
2006,09,22,07,55,6.00
2006,09,22,07,56,6.00
2006,09,22,07,57,6.00
2006,09,22,07,58,6.00
2006,09,22,07,59,6.00
2006,09,22,08,00,6.00
2006,09,22,08,01,6.00
2006,09,22,08,02,6.00
2006,09,22,08,03,6.00
2006,09,22,08,04,6.00
2006,09,22,08,05,6.00
2006,09,22,08,06,6.00
2006,09,22,08,07,6.10
2006,09,22,08,08,6.10
2006,09,22,08,09,6.20
2006,09,22,08,10,6.20
2006,09,22,08,11,6.20
2006,09,22,08,12,6.30
2006,09,22,08,13,6.30
2006,09,22,08,14,6.40
2006,09,22,08,15,6.40
2006,09,22,08,16,6.40
2006,09,22,08,17,6.50
2006,09,22,08,18,6.60
2006,09,22,08,19,6.60
2006,09,22,08,20,6.60
2006,09,22,08,21,6.60
2006,09,22,08,22,6.70
2006,09,22,08,23,6.80
2006,09,22,08,24,6.90
2006,09,22,08,25,7.00
2006,09,22,08,26,7.00
2006,09,22,08,27,7.10
2006,09,22,08,28,7.30
2006,09,22,08,29,7.40
2006,09,22,08,30,7.50
2006,09,22,08,31,7.70
2006,09,22,08,32,7.80
2006,09,22,08,33,7.90
2006,09,22,08,34,8.00
2006,09,22,08,35,8.10
2006,09,22,08,36,8.20
2006,09,22,08,37,8.30
2006,09,22,08,38,8.30
2006,09,22,08,39,8.40
2006,09,22,08,40,8.50
2006,09,22,08,41,8.70
2006,09,22,08,42,8.70
2006,09,22,08,43,8.70
2006,09,22,08,44,8.90
2006,09,22,08,45,8.90
2006,09,22,08,46,9.00
2006,09,22,08,47,9.00
2006,09,22,08,48,9.10
2006,09,22,08,49,9.20
2006,09,22,08,50,9.20
2006,09,22,08,51,9.30
2006,09,22,08,52,9.40
2006,09,22,08,53,9.50
2006,09,22,08,54,9.60
2006,09,22,08,55,9.50
2006,09,22,08,56,9.50
2006,09,22,08,57,9.60
2006,09,22,08,58,9.60
2006,09,22,08,59,9.70
2006,09,22,09,00,9.70
2006,09,22,09,01,9.70
2006,09,22,09,02,9.80
2006,09,22,09,03,9.90
2006,09,22,09,04,10.00
2006,09,22,09,05,10.10
2006,09,22,09,06,10.20
2006,09,22,09,07,10.30
2006,09,22,09,08,10.30
2006,09,22,09,09,10.40
2006,09,22,09,10,10.50
2006,09,22,09,11,10.60
2006,09,22,09,12,10.60
2006,09,22,09,13,10.70
2006,09,22,09,14,10.80
2006,09,22,09,15,10.90
2006,09,22,09,16,11.00
2006,09,22,09,17,11.10
2006,09,22,09,18,11.10
2006,09,22,09,19,11.30
2006,09,22,09,20,11.40
2006,09,22,09,21,11.40
2006,09,22,09,22,11.50
2006,09,22,09,23,11.60
2006,09,22,09,24,11.70
2006,09,22,09,25,11.80
2006,09,22,09,26,11.90
2006,09,22,09,27,12.00
2006,09,22,09,28,12.10
2006,09,22,09,29,12.20
2006,09,22,09,30,12.30
2006,09,22,09,31,12.40
2006,09,22,09,32,12.50
2006,09,22,09,33,12.60
2006,09,22,09,34,12.70
2006,09,22,09,35,12.80
2006,09,22,09,36,12.80
2006,09,22,09,37,12.90
2006,09,22,09,38,12.90
2006,09,22,09,39,13.00
2006,09,22,09,40,13.00
2006,09,22,09,41,13.10
2006,09,22,09,42,13.10
2006,09,22,09,43,13.20
2006,09,22,09,44,13.20
2006,09,22,09,45,13.30
2006,09,22,09,46,13.30
2006,09,22,09,47,13.30
2006,09,22,09,48,13.40
2006,09,22,09,49,13.40
2006,09,22,09,50,13.50
2006,09,22,09,51,13.60
2006,09,22,09,52,13.60
2006,09,22,09,53,13.70
2006,09,22,09,54,13.70
2006,09,22,09,55,13.70
2006,09,22,09,56,13.80
2006,09,22,09,57,13.80
2006,09,22,09,58,13.90
2006,09,22,09,59,13.90
2006,09,22,10,00,13.90
2006,09,22,10,01,13.90
2006,09,22,10,02,14.00
2006,09,22,10,03,14.00
2006,09,22,10,04,14.10
2006,09,22,10,05,14.10
2006,09,22,10,06,14.10
2006,09,22,10,07,14.20
2006,09,22,10,08,14.20
2006,09,22,10,09,14.20
2006,09,22,10,10,14.20
2006,09,22,10,11,14.20
2006,09,22,10,12,14.20
2006,09,22,10,13,14.20
2006,09,22,10,14,14.30
2006,09,22,10,15,14.30
2006,09,22,10,16,14.30
2006,09,22,10,17,14.30
2006,09,22,10,18,14.30
2006,09,22,10,19,14.20
2006,09,22,10,20,14.30
2006,09,22,10,21,14.40
2006,09,22,10,22,14.40
2006,09,22,10,23,14.50
2006,09,22,10,24,14.50
2006,09,22,10,25,14.50
2006,09,22,10,26,14.30
2006,09,22,10,27,14.30
2006,09,22,10,28,14.20
2006,09,22,10,29,14.20
2006,09,22,10,30,14.20
2006,09,22,10,31,14.20
2006,09,22,10,32,14.20
2006,09,22,10,33,14.20
2006,09,22,10,34,14.20
2006,09,22,10,35,14.30
2006,09,22,10,36,14.40
2006,09,22,10,37,14.50
2006,09,22,10,38,14.60
2006,09,22,10,39,14.70
2006,09,22,10,40,14.70
2006,09,22,10,41,14.80
2006,09,22,10,42,14.80
2006,09,22,10,43,14.80
2006,09,22,10,44,14.90
2006,09,22,10,45,14.80
2006,09,22,10,46,14.80
2006,09,22,10,47,14.80
2006,09,22,10,48,14.90
2006,09,22,10,49,15.00
2006,09,22,10,50,15.00
2006,09,22,10,51,14.90
2006,09,22,10,52,14.90
2006,09,22,10,53,14.90
2006,09,22,10,54,15.00
2006,09,22,10,55,15.10
2006,09,22,10,56,15.10
2006,09,22,10,57,15.20
2006,09,22,10,58,15.20
2006,09,22,10,59,15.20
2006,09,22,11,00,15.10
2006,09,22,11,01,15.00
2006,09,22,11,02,15.00
2006,09,22,11,03,14.90
2006,09,22,11,04,14.90
2006,09,22,11,05,14.80
2006,09,22,11,06,14.80
2006,09,22,11,07,14.80
2006,09,22,11,08,14.80
2006,09,22,11,09,14.80
2006,09,22,11,10,14.80
2006,09,22,11,11,14.80
2006,09,22,11,12,14.70
2006,09,22,11,13,14.80
2006,09,22,11,14,14.80
2006,09,22,11,15,14.80
2006,09,22,11,16,14.90
2006,09,22,11,17,15.00
2006,09,22,11,18,15.10
2006,09,22,11,19,15.10
2006,09,22,11,20,15.10
2006,09,22,11,21,15.10
2006,09,22,11,22,15.20
2006,09,22,11,23,15.20
2006,09,22,11,24,15.20
2006,09,22,11,25,15.20
2006,09,22,11,26,15.20
2006,09,22,11,27,15.10
2006,09,22,11,28,15.10
2006,09,22,11,29,15.10
2006,09,22,11,30,15.10
2006,09,22,11,31,15.10
2006,09,22,11,32,15.10
2006,09,22,11,33,15.20
2006,09,22,11,34,15.30
2006,09,22,11,35,15.40
2006,09,22,11,36,15.50
2006,09,22,11,37,15.50
2006,09,22,11,38,15.50
2006,09,22,11,39,15.60
2006,09,22,11,40,15.60
2006,09,22,11,41,15.70
2006,09,22,11,42,15.80
2006,09,22,11,43,15.80
2006,09,22,11,44,15.70
2006,09,22,11,45,15.70
2006,09,22,11,46,15.60
2006,09,22,11,47,15.60
2006,09,22,11,48,15.50
2006,09,22,11,49,15.50
2006,09,22,11,50,15.40
2006,09,22,11,51,15.40
2006,09,22,11,52,15.30
2006,09,22,11,53,15.30
2006,09,22,11,54,15.30
2006,09,22,11,55,15.40
2006,09,22,11,56,15.40
2006,09,22,11,57,15.50
2006,09,22,11,58,15.50
2006,09,22,11,59,15.40
2006,09,22,12,00,15.40
2006,09,22,12,01,15.50
2006,09,22,12,02,15.50
2006,09,22,12,03,15.50
2006,09,22,12,04,15.40
2006,09,22,12,05,15.30
2006,09,22,12,06,15.30
2006,09,22,12,07,15.30
2006,09,22,12,08,15.30
2006,09,22,12,09,15.30
2006,09,22,12,10,15.40
2006,09,22,12,11,15.40
2006,09,22,12,12,15.50
2006,09,22,12,13,15.50
2006,09,22,12,14,15.50
2006,09,22,12,15,15.50
2006,09,22,12,16,15.50
2006,09,22,12,17,15.50
2006,09,22,12,18,15.50
2006,09,22,12,19,15.60
2006,09,22,12,20,15.70
2006,09,22,12,21,15.80
2006,09,22,12,22,15.80
2006,09,22,12,23,15.70
2006,09,22,12,24,15.60
2006,09,22,12,25,15.60
2006,09,22,12,26,15.50
2006,09,22,12,27,15.60
2006,09,22,12,28,15.60
2006,09,22,12,29,15.60
2006,09,22,12,30,15.60
2006,09,22,12,31,15.60
2006,09,22,12,32,15.70
2006,09,22,12,33,15.80
2006,09,22,12,34,15.80
2006,09,22,12,35,15.80
2006,09,22,12,36,15.80
2006,09,22,12,37,15.90
2006,09,22,12,38,16.00
2006,09,22,12,39,16.10
2006,09,22,12,40,16.00
2006,09,22,12,41,15.90
2006,09,22,12,42,15.90
2006,09,22,12,43,15.80
2006,09,22,12,44,15.80
2006,09,22,12,45,15.80
2006,09,22,12,46,15.80
2006,09,22,12,47,15.80
2006,09,22,12,48,15.80
2006,09,22,12,49,15.80
2006,09,22,12,50,15.80
2006,09,22,12,51,15.90
2006,09,22,12,52,16.00
2006,09,22,12,53,16.10
2006,09,22,12,54,16.10
2006,09,22,12,55,16.10
2006,09,22,12,56,16.10
2006,09,22,12,57,16.10
2006,09,22,12,58,16.10
2006,09,22,12,59,16.10
2006,09,22,13,00,16.10
2006,09,22,13,01,16.10
2006,09,22,13,02,16.10
2006,09,22,13,03,16.10
2006,09,22,13,04,16.10
2006,09,22,13,05,16.10
2006,09,22,13,06,16.20
2006,09,22,13,07,16.20
2006,09,22,13,08,16.30
2006,09,22,13,09,16.40
2006,09,22,13,10,16.40
2006,09,22,13,11,16.40
2006,09,22,13,12,16.40
2006,09,22,13,13,16.40
2006,09,22,13,14,16.40
2006,09,22,13,15,16.40
2006,09,22,13,16,16.40
2006,09,22,13,17,16.40
2006,09,22,13,18,16.40
2006,09,22,13,19,16.40
2006,09,22,13,20,16.30
2006,09,22,13,21,16.30
2006,09,22,13,22,16.30
2006,09,22,13,23,16.30
2006,09,22,13,24,16.30
2006,09,22,13,25,16.30
2006,09,22,13,26,16.20
2006,09,22,13,27,16.30
2006,09,22,13,28,16.30
2006,09,22,13,29,16.30
2006,09,22,13,30,16.30
2006,09,22,13,31,16.30
2006,09,22,13,32,16.30
2006,09,22,13,33,16.30
2006,09,22,13,34,16.20
2006,09,22,13,35,16.20
2006,09,22,13,36,16.30
2006,09,22,13,37,16.30
2006,09,22,13,38,16.30
2006,09,22,13,39,16.30
2006,09,22,13,40,16.30
2006,09,22,13,41,16.40
2006,09,22,13,42,16.40
2006,09,22,13,43,16.40
2006,09,22,13,44,16.50
2006,09,22,13,45,16.60
2006,09,22,13,46,16.60
2006,09,22,13,47,16.50
2006,09,22,13,48,16.40
2006,09,22,13,49,16.50
2006,09,22,13,50,16.60
2006,09,22,13,51,16.60
2006,09,22,13,52,16.60
2006,09,22,13,53,16.60
2006,09,22,13,54,16.60
2006,09,22,13,55,16.60
2006,09,22,13,56,16.40
2006,09,22,13,57,16.40
2006,09,22,13,58,16.40
2006,09,22,13,59,16.30
2006,09,22,14,00,16.20
2006,09,22,14,01,16.20
2006,09,22,14,02,16.20
2006,09,22,14,03,16.20
2006,09,22,14,04,16.20
2006,09,22,14,05,16.20
2006,09,22,14,06,16.20
2006,09,22,14,07,16.30
2006,09,22,14,08,16.40
2006,09,22,14,09,16.40
2006,09,22,14,10,16.50
2006,09,22,14,11,16.70
2006,09,22,14,12,16.80
2006,09,22,14,13,16.90
2006,09,22,14,14,16.90
2006,09,22,14,15,17.00
2006,09,22,14,16,17.00
2006,09,22,14,17,17.00
2006,09,22,14,18,17.00
2006,09,22,14,19,17.00
2006,09,22,14,20,17.10
2006,09,22,14,21,17.10
2006,09,22,14,22,17.10
2006,09,22,14,23,17.10
2006,09,22,14,24,17.10
2006,09,22,14,25,17.10
2006,09,22,14,26,17.20
2006,09,22,14,27,17.30
2006,09,22,14,28,17.30
2006,09,22,14,29,17.30
2006,09,22,14,30,17.30
2006,09,22,14,31,17.30
2006,09,22,14,32,17.40
2006,09,22,14,33,17.40
2006,09,22,14,34,17.50
2006,09,22,14,35,17.70
2006,09,22,14,36,17.70
2006,09,22,14,37,17.60
2006,09,22,14,38,17.50
2006,09,22,14,39,17.40
2006,09,22,14,40,17.30
2006,09,22,14,41,17.20
2006,09,22,14,42,17.10
2006,09,22,14,43,17.10
2006,09,22,14,44,17.10
2006,09,22,14,45,17.10
2006,09,22,14,46,17.00
2006,09,22,14,47,17.00
2006,09,22,14,48,17.00
2006,09,22,14,49,17.00
2006,09,22,14,50,17.00
2006,09,22,14,51,17.00
2006,09,22,14,52,16.90
2006,09,22,14,53,16.90
2006,09,22,14,54,16.90
2006,09,22,14,55,16.90
2006,09,22,14,56,17.00
2006,09,22,14,57,17.00
2006,09,22,14,58,16.90
2006,09,22,14,59,16.80
2006,09,22,15,00,16.70
2006,09,22,15,01,16.70
2006,09,22,15,02,16.70
2006,09,22,15,03,16.80
2006,09,22,15,04,16.80
2006,09,22,15,05,16.80
2006,09,22,15,06,16.90
2006,09,22,15,07,16.90
2006,09,22,15,08,16.90
2006,09,22,15,09,16.90
2006,09,22,15,10,16.80
2006,09,22,15,11,16.90
2006,09,22,15,12,16.90
2006,09,22,15,13,16.90
2006,09,22,15,14,16.80
2006,09,22,15,15,16.80
2006,09,22,15,16,16.80
2006,09,22,15,17,16.80
2006,09,22,15,18,16.70
2006,09,22,15,19,16.60
2006,09,22,15,20,16.50
2006,09,22,15,21,16.40
2006,09,22,15,22,16.40
2006,09,22,15,23,16.30
2006,09,22,15,24,16.30
2006,09,22,15,25,16.30
2006,09,22,15,26,16.30
2006,09,22,15,27,16.30
2006,09,22,15,28,16.30
2006,09,22,15,29,16.30
2006,09,22,15,30,16.30
2006,09,22,15,31,16.30
2006,09,22,15,32,16.30
2006,09,22,15,33,16.30
2006,09,22,15,34,16.30
2006,09,22,15,35,16.30
2006,09,22,15,36,16.40
2006,09,22,15,37,16.40
2006,09,22,15,38,16.40
2006,09,22,15,39,16.40
2006,09,22,15,40,16.40
2006,09,22,15,41,16.50
2006,09,22,15,42,16.60
2006,09,22,15,43,16.60
2006,09,22,15,44,16.60
2006,09,22,15,45,16.60
2006,09,22,15,46,16.60
2006,09,22,15,47,16.60
2006,09,22,15,48,16.60
2006,09,22,15,49,16.60
2006,09,22,15,50,16.60
2006,09,22,15,51,16.60
2006,09,22,15,52,16.50
2006,09,22,15,53,16.40
2006,09,22,15,54,16.40
2006,09,22,15,55,16.30
2006,09,22,15,56,16.30
2006,09,22,15,57,16.30
2006,09,22,15,58,16.30
2006,09,22,15,59,16.20
2006,09,22,16,00,16.30
2006,09,22,16,01,16.20
2006,09,22,16,02,16.20
2006,09,22,16,03,16.20
2006,09,22,16,04,16.20
2006,09,22,16,05,16.30
2006,09,22,16,06,16.20
2006,09,22,16,07,16.20
2006,09,22,16,08,16.20
2006,09,22,16,09,16.20
2006,09,22,16,10,16.10
2006,09,22,16,11,16.20
2006,09,22,16,12,16.20
2006,09,22,16,13,16.30
2006,09,22,16,14,16.30
2006,09,22,16,15,16.40
2006,09,22,16,16,16.40
2006,09,22,16,17,16.40
2006,09,22,16,18,16.40
2006,09,22,16,19,16.40
2006,09,22,16,20,16.40
2006,09,22,16,21,16.40
2006,09,22,16,22,16.60
2006,09,22,16,23,16.60
2006,09,22,16,24,16.60
2006,09,22,16,25,16.70
2006,09,22,16,26,16.70
2006,09,22,16,27,16.80
2006,09,22,16,28,16.90
2006,09,22,16,29,16.90
2006,09,22,16,30,16.90
2006,09,22,16,31,16.90
2006,09,22,16,32,16.90
2006,09,22,16,33,17.00
2006,09,22,16,34,17.00
2006,09,22,16,35,17.00
2006,09,22,16,36,17.00
2006,09,22,16,37,17.10
2006,09,22,16,38,17.10
2006,09,22,16,39,17.20
2006,09,22,16,40,17.20
2006,09,22,16,41,17.10
2006,09,22,16,42,17.10
2006,09,22,16,43,17.00
2006,09,22,16,44,17.00
2006,09,22,16,45,16.90
2006,09,22,16,46,16.90
2006,09,22,16,47,16.90
2006,09,22,16,48,16.90
2006,09,22,16,49,16.90
2006,09,22,16,50,16.90
2006,09,22,16,51,17.00
2006,09,22,16,52,16.90
2006,09,22,16,53,16.90
2006,09,22,16,54,16.90
2006,09,22,16,55,16.80
2006,09,22,16,56,16.80
2006,09,22,16,57,16.80
2006,09,22,16,58,16.80
2006,09,22,16,59,16.90
2006,09,22,17,00,16.90
2006,09,22,17,01,16.90
2006,09,22,17,02,17.00
2006,09,22,17,03,17.00
2006,09,22,17,04,16.90
2006,09,22,17,05,16.80
2006,09,22,17,06,16.80
2006,09,22,17,07,16.90
2006,09,22,17,08,16.90
2006,09,22,17,09,16.90
2006,09,22,17,10,16.90
2006,09,22,17,11,17.00
2006,09,22,17,12,17.00
2006,09,22,17,13,16.90
2006,09,22,17,14,16.90
2006,09,22,17,15,16.90
2006,09,22,17,16,16.90
2006,09,22,17,17,16.80
2006,09,22,17,18,16.80
2006,09,22,17,19,16.80
2006,09,22,17,20,16.90
2006,09,22,17,21,16.90
2006,09,22,17,22,16.80
2006,09,22,17,23,16.80
2006,09,22,17,24,16.80
2006,09,22,17,25,16.80
2006,09,22,17,26,16.70
2006,09,22,17,27,16.70
2006,09,22,17,28,16.70
2006,09,22,17,29,16.70
2006,09,22,17,30,16.70
2006,09,22,17,31,16.60
2006,09,22,17,32,16.60
2006,09,22,17,33,16.60
2006,09,22,17,34,16.60
2006,09,22,17,35,16.60
2006,09,22,17,36,16.60
2006,09,22,17,37,16.50
2006,09,22,17,38,16.40
2006,09,22,17,39,16.40
2006,09,22,17,40,16.40
2006,09,22,17,41,16.30
2006,09,22,17,42,16.30
2006,09,22,17,43,16.30